Location: Ohmer (historical)
(38.0096°N, 122.0227°W)
Time: 03:58:39
(UTC+00:00)

NOSS 3-1 (C) - Pass Details

Date: 14 February 2026
Orbit: 618 x 1583 km, 63.4° (Epoch: 10 January)

Event Time Altitude Azimuth Distance (km) Brightness Sun altitude
Exits shadow 12:39:19 63° 70° (ENE) 765 3.1 -28.1°
Drops below altitude 10° 12:43:49 10° 37° (NE) 2,307 6.0 -27.2°
Sets 12:46:28 0° 35° (NE) 3,369 6.9 -26.7°
